Time,TemperatureF,DewpointF,PressureIn,WindDirection,WindDirectionDegrees,WindSpeedMPH,WindSpeedGustMPH,Humidity,HourlyPrecipIn,Conditions,Clouds,dailyrainin,SoftwareType,DateUTC
2013-02-09 00:07:00,49.3,32.0,29.85,SW,227,6.0,-999.0,51,-99.99,,,0.00,weatherlink.com 1.10,2013-02-09 07:07:00,
2013-02-09 00:23:00,48.9,31.0,29.85,WSW,247,8.0,-999.0,51,-99.99,,,0.00,weatherlink.com 1.10,2013-02-09 07:23:00,
2013-02-09 00:38:00,48.3,32.0,29.85,SW,233,5.0,-999.0,53,-99.99,,,0.00,weatherlink.com 1.10,2013-02-09 07:38:00,
2013-02-09 00:53:00,47.8,31.0,29.85,SW,221,3.0,-999.0,53,-99.99,,,0.00,weatherlink.com 1.10,2013-02-09 07:53:00,
2013-02-09 01:08:00,47.4,31.0,29.85,SSW,209,5.0,-999.0,54,-99.99,,,0.00,weatherlink.com 1.10,2013-02-09 08:08:00,
2013-02-09 01:23:00,47.2,32.0,29.86,SW,224,4.0,-999.0,55,-99.99,,,0.00,weatherlink.com 1.10,2013-02-09 08:23:00,
2013-02-09 01:38:00,46.9,32.0,29.87,SW,229,2.0,-999.0,56,-99.99,,,0.00,weatherlink.com 1.10,2013-02-09 08:38:00,
2013-02-09 01:53:00,46.7,31.0,29.87,SSW,213,4.0,-999.0,55,-99.99,,,0.00,weatherlink.com 1.10,2013-02-09 08:53:00,
2013-02-09 02:08:00,46.6,31.0,29.87,SSW,209,3.0,-999.0,55,-99.99,,,0.00,weatherlink.com 1.10,2013-02-09 09:08:00,
2013-02-09 02:23:00,46.6,31.0,29.87,SSW,212,5.0,-999.0,55,-99.99,,,0.00,weatherlink.com 1.10,2013-02-09 09:23:00,
2013-02-09 02:38:00,46.3,31.0,29.86,South,184,1.0,-999.0,56,-99.99,,,0.00,weatherlink.com 1.10,2013-02-09 09:38:00,
2013-02-09 02:53:00,46.1,31.0,29.86,SSW,200,3.0,-999.0,57,-99.99,,,0.00,weatherlink.com 1.10,2013-02-09 09:53:00,
2013-02-09 03:08:00,45.8,32.0,29.86,SSW,205,1.0,-999.0,58,-99.99,,,0.00,weatherlink.com 1.10,2013-02-09 10:08:00,
2013-02-09 03:23:00,45.5,31.0,29.87,SSW,209,1.0,-999.0,58,-99.99,,,0.00,weatherlink.com 1.10,2013-02-09 10:23:00,
2013-02-09 03:38:00,45.1,32.0,29.87,SSW,210,2.0,-999.0,60,-99.99,,,0.00,weatherlink.com 1.10,2013-02-09 10:38:00,
2013-02-09 04:08:00,44.9,32.0,29.87,SW,227,3.0,-999.0,60,-99.99,,,0.00,weatherlink.com 1.10,2013-02-09 11:08:00,
2013-02-09 04:23:00,44.6,32.0,29.87,SW,229,4.0,-999.0,61,-99.99,,,0.00,weatherlink.com 1.10,2013-02-09 11:23:00,
2013-02-09 04:38:00,44.5,32.0,29.87,SW,231,1.0,-999.0,62,-99.99,,,0.00,weatherlink.com 1.10,2013-02-09 11:38:00,
2013-02-09 04:53:00,44.7,32.0,29.87,WSW,237,1.0,-999.0,61,-99.99,,,0.00,weatherlink.com 1.10,2013-02-09 11:53:00,
2013-02-09 05:08:00,44.5,32.0,29.87,SW,236,0.0,-999.0,61,-99.99,,,0.00,weatherlink.com 1.10,2013-02-09 12:08:00,
2013-02-09 05:23:00,44.3,32.0,29.88,SW,219,0.0,-999.0,62,-99.99,,,0.00,weatherlink.com 1.10,2013-02-09 12:23:00,
2013-02-09 05:38:00,43.5,32.0,29.88,SW,219,1.0,-999.0,63,-99.99,,,0.00,weatherlink.com 1.10,2013-02-09 12:38:00,
2013-02-09 05:53:00,43.6,32.0,29.88,SSW,213,2.0,-999.0,65,-99.99,,,0.00,weatherlink.com 1.10,2013-02-09 12:53:00,
2013-02-09 06:08:00,43.3,32.0,29.88,SW,214,2.0,-999.0,65,-99.99,,,0.00,weatherlink.com 1.10,2013-02-09 13:08:00,
2013-02-09 06:23:00,43.0,32.0,29.89,SW,214,0.0,-999.0,66,-99.99,,,0.00,weatherlink.com 1.10,2013-02-09 13:23:00,
2013-02-09 06:39:00,42.9,32.0,29.90,SW,214,0.0,-999.0,66,-99.99,,,0.00,weatherlink.com 1.10,2013-02-09 13:39:00,
2013-02-09 06:53:00,42.1,32.0,29.91,SW,214,0.0,-999.0,67,-99.99,,,0.00,weatherlink.com 1.10,2013-02-09 13:53:00,
2013-02-09 07:08:00,41.5,32.0,29.91,SW,214,1.0,-999.0,69,-99.99,,,0.00,weatherlink.com 1.10,2013-02-09 14:08:00,
2013-02-09 07:23:00,41.2,32.0,29.91,SW,214,1.0,-999.0,69,-99.99,,,0.00,weatherlink.com 1.10,2013-02-09 14:23:00,
2013-02-09 07:38:00,41.5,31.0,29.92,South,176,5.0,-999.0,67,-99.99,,,0.00,weatherlink.com 1.10,2013-02-09 14:38:00,
2013-02-09 07:54:00,43.4,31.0,29.92,South,183,5.0,-999.0,63,-99.99,,,0.00,weatherlink.com 1.10,2013-02-09 14:54:00,
2013-02-09 08:09:00,43.5,32.0,29.93,South,184,2.0,-999.0,63,-99.99,,,0.00,weatherlink.com 1.10,2013-02-09 15:09:00,
2013-02-09 08:23:00,44.1,32.0,29.94,South,184,2.0,-999.0,62,-99.99,,,0.00,weatherlink.com 1.10,2013-02-09 15:23:00,
2013-02-09 08:39:00,44.9,32.0,29.94,South,184,1.0,-999.0,61,-99.99,,,0.00,weatherlink.com 1.10,2013-02-09 15:39:00,
2013-02-09 08:53:00,45.9,32.0,29.95,South,184,1.0,-999.0,59,-99.99,,,0.00,weatherlink.com 1.10,2013-02-09 15:53:00,
2013-02-09 09:09:00,47.1,32.0,29.96,South,186,6.0,-999.0,56,-99.99,,,0.00,weatherlink.com 1.10,2013-02-09 16:09:00,
2013-02-09 09:24:00,48.5,30.0,29.96,South,189,1.0,-999.0,49,-99.99,,,0.00,weatherlink.com 1.10,2013-02-09 16:24:00,
2013-02-09 09:38:00,50.0,30.0,29.97,SSW,211,3.0,-999.0,46,-99.99,,,0.00,weatherlink.com 1.10,2013-02-09 16:38:00,
2013-02-09 09:54:00,50.5,29.0,29.97,WSW,242,4.0,-999.0,44,-99.99,,,0.00,weatherlink.com 1.10,2013-02-09 16:54:00,
2013-02-09 10:09:00,51.1,29.0,29.98,SW,225,3.0,-999.0,42,-99.99,,,0.00,weatherlink.com 1.10,2013-02-09 17:09:00,
2013-02-09 10:24:00,51.5,29.0,29.98,WSW,248,8.0,-999.0,42,-99.99,,,0.00,weatherlink.com 1.10,2013-02-09 17:24:00,
2013-02-09 10:39:00,52.3,28.0,29.98,WSW,238,6.0,-999.0,40,-99.99,,,0.00,weatherlink.com 1.10,2013-02-09 17:39:00,
2013-02-09 10:54:00,52.7,28.0,29.99,SW,230,3.0,-999.0,39,-99.99,,,0.00,weatherlink.com 1.10,2013-02-09 17:54:00,
2013-02-09 11:09:00,53.3,28.0,29.99,SW,233,4.0,-999.0,38,-99.99,,,0.00,weatherlink.com 1.10,2013-02-09 18:09:00,
2013-02-09 11:24:00,53.6,28.0,30.00,WSW,253,4.0,-999.0,38,-99.99,,,0.00,weatherlink.com 1.10,2013-02-09 18:24:00,
2013-02-09 11:38:00,53.6,28.0,30.00,WSW,238,2.0,-999.0,37,-99.99,,,0.00,weatherlink.com 1.10,2013-02-09 18:38:00,
2013-02-09 11:54:00,54.4,28.0,30.00,SW,235,2.0,-999.0,37,-99.99,,,0.00,weatherlink.com 1.10,2013-02-09 18:54:00,
2013-02-09 12:09:00,54.0,28.0,30.00,SW,234,7.0,-999.0,37,-99.99,,,0.00,weatherlink.com 1.10,2013-02-09 19:09:00,
2013-02-09 12:23:00,54.3,27.0,30.00,West,271,4.0,-999.0,35,-99.99,,,0.00,weatherlink.com 1.10,2013-02-09 19:23:00,
2013-02-09 12:39:00,55.7,28.0,30.00,WSW,244,10.0,-999.0,34,-99.99,,,0.00,weatherlink.com 1.10,2013-02-09 19:39:00,
2013-02-09 12:54:00,55.6,27.0,30.00,WNW,286,8.0,-999.0,34,-99.99,,,0.00,weatherlink.com 1.10,2013-02-09 19:54:00,
2013-02-09 13:09:00,57.0,26.0,30.00,West,272,11.0,-999.0,31,-99.99,,,0.00,weatherlink.com 1.10,2013-02-09 20:09:00,
2013-02-09 13:24:00,56.6,27.0,29.99,WSW,254,4.0,-999.0,32,-99.99,,,0.00,weatherlink.com 1.10,2013-02-09 20:24:00,
2013-02-09 13:40:00,56.7,26.0,29.98,South,190,2.0,-999.0,31,-99.99,,,0.00,weatherlink.com 1.10,2013-02-09 20:40:00,
2013-02-09 13:54:00,56.7,25.0,29.99,WNW,288,5.0,-999.0,29,-99.99,,,0.00,weatherlink.com 1.10,2013-02-09 20:54:00,
2013-02-09 14:09:00,57.7,25.0,29.98,West,279,5.0,-999.0,29,-99.99,,,0.00,weatherlink.com 1.10,2013-02-09 21:09:00,
2013-02-09 14:25:00,58.0,25.0,29.98,West,271,4.0,-999.0,28,-99.99,,,0.00,weatherlink.com 1.10,2013-02-09 21:25:00,
2013-02-09 14:39:00,58.5,26.0,29.98,WNW,300,7.0,-999.0,29,-99.99,,,0.00,weatherlink.com 1.10,2013-02-09 21:39:00,
2013-02-09 14:54:00,58.8,26.0,29.98,West,277,7.0,-999.0,28,-99.99,,,0.00,weatherlink.com 1.10,2013-02-09 21:54:00,
2013-02-09 15:09:00,58.6,25.0,29.98,WNW,300,6.0,-999.0,28,-99.99,,,0.00,weatherlink.com 1.10,2013-02-09 22:09:00,
2013-02-09 15:24:00,59.4,24.0,29.98,SW,228,8.0,-999.0,26,-99.99,,,0.00,weatherlink.com 1.10,2013-02-09 22:24:00,
2013-02-09 15:39:00,59.3,25.0,29.98,WSW,254,6.0,-999.0,27,-99.99,,,0.00,weatherlink.com 1.10,2013-02-09 22:39:00,
2013-02-09 15:55:00,59.5,24.0,29.98,West,269,3.0,-999.0,26,-99.99,,,0.00,weatherlink.com 1.10,2013-02-09 22:55:00,
2013-02-09 16:09:00,59.5,24.0,29.98,WSW,248,2.0,-999.0,26,-99.99,,,0.00,weatherlink.com 1.10,2013-02-09 23:09:00,
2013-02-09 16:24:00,58.5,24.0,29.98,West,269,4.0,-999.0,27,-99.99,,,0.00,weatherlink.com 1.10,2013-02-09 23:24:00,
2013-02-09 16:39:00,58.6,25.0,29.98,SSW,211,1.0,-999.0,27,-99.99,,,0.00,weatherlink.com 1.10,2013-02-09 23:39:00,
2013-02-09 16:54:00,59.0,25.0,29.98,West,264,2.0,-999.0,27,-99.99,,,0.00,weatherlink.com 1.10,2013-02-09 23:54:00,
2013-02-09 17:10:00,58.0,25.0,29.98,WSW,250,1.0,-999.0,28,-99.99,,,0.00,weatherlink.com 1.10,2013-02-10 00:10:00,
2013-02-09 17:25:00,57.7,25.0,29.99,WSW,241,0.0,-999.0,28,-99.99,,,0.00,weatherlink.com 1.10,2013-02-10 00:25:00,
2013-02-09 17:39:00,57.7,25.0,29.99,WSW,248,2.0,-999.0,28,-99.99,,,0.00,weatherlink.com 1.10,2013-02-10 00:39:00,
2013-02-09 17:54:00,57.0,25.0,29.99,WSW,253,5.0,-999.0,29,-99.99,,,0.00,weatherlink.com 1.10,2013-02-10 00:54:00,
2013-02-09 18:10:00,56.0,25.0,29.99,WSW,254,0.0,-999.0,30,-99.99,,,0.00,weatherlink.com 1.10,2013-02-10 01:10:00,
2013-02-09 18:24:00,55.1,25.0,29.99,WSW,254,0.0,-999.0,31,-99.99,,,0.00,weatherlink.com 1.10,2013-02-10 01:24:00,
2013-02-09 18:40:00,54.1,25.0,29.99,WSW,254,0.0,-999.0,33,-99.99,,,0.00,weatherlink.com 1.10,2013-02-10 01:40:00,
2013-02-09 18:55:00,53.3,25.0,30.00,WSW,254,0.0,-999.0,34,-99.99,,,0.00,weatherlink.com 1.10,2013-02-10 01:55:00,
2013-02-09 19:10:00,53.5,25.0,30.00,WSW,254,1.0,-999.0,33,-99.99,,,0.00,weatherlink.com 1.10,2013-02-10 02:10:00,
2013-02-09 19:25:00,53.3,25.0,30.00,WSW,254,0.0,-999.0,33,-99.99,,,0.00,weatherlink.com 1.10,2013-02-10 02:25:00,
2013-02-09 19:40:00,53.0,25.0,30.01,WSW,254,0.0,-999.0,34,-99.99,,,0.00,weatherlink.com 1.10,2013-02-10 02:40:00,
2013-02-09 19:54:00,52.6,25.0,30.01,WSW,254,0.0,-999.0,34,-99.99,,,0.00,weatherlink.com 1.10,2013-02-10 02:54:00,
2013-02-09 20:09:00,52.3,25.0,30.02,WSW,254,0.0,-999.0,34,-99.99,,,0.00,weatherlink.com 1.10,2013-02-10 03:09:00,
2013-02-09 20:24:00,51.7,25.0,30.02,WSW,254,0.0,-999.0,35,-99.99,,,0.00,weatherlink.com 1.10,2013-02-10 03:24:00,
2013-02-09 20:40:00,51.2,25.0,30.02,WSW,254,1.0,-999.0,36,-99.99,,,0.00,weatherlink.com 1.10,2013-02-10 03:40:00,
2013-02-09 20:55:00,50.7,26.0,30.02,WSW,254,0.0,-999.0,38,-99.99,,,0.00,weatherlink.com 1.10,2013-02-10 03:55:00,
2013-02-09 21:10:00,50.0,26.0,30.03,WSW,254,0.0,-999.0,40,-99.99,,,0.00,weatherlink.com 1.10,2013-02-10 04:10:00,
2013-02-09 21:25:00,49.4,26.0,30.04,WSW,254,0.0,-999.0,41,-99.99,,,0.00,weatherlink.com 1.10,2013-02-10 04:25:00,
2013-02-09 21:40:00,49.5,27.0,30.04,South,169,5.0,-999.0,42,-99.99,,,0.00,weatherlink.com 1.10,2013-02-10 04:40:00,
2013-02-09 21:55:00,49.1,27.0,30.04,South,170,4.0,-999.0,43,-99.99,,,0.00,weatherlink.com 1.10,2013-02-10 04:55:00,
2013-02-09 22:10:00,48.8,28.0,30.05,South,169,4.0,-999.0,44,-99.99,,,0.00,weatherlink.com 1.10,2013-02-10 05:10:00,
2013-02-09 22:25:00,48.1,28.0,30.05,South,169,5.0,-999.0,46,-99.99,,,0.00,weatherlink.com 1.10,2013-02-10 05:25:00,
2013-02-09 22:40:00,47.4,28.0,30.05,South,169,4.0,-999.0,48,-99.99,,,0.00,weatherlink.com 1.10,2013-02-10 05:40:00,
2013-02-09 22:55:00,47.2,29.0,30.05,South,169,2.0,-999.0,49,-99.99,,,0.00,weatherlink.com 1.10,2013-02-10 05:55:00,
2013-02-09 23:10:00,47.1,29.0,30.05,South,169,4.0,-999.0,49,-99.99,,,0.00,weatherlink.com 1.10,2013-02-10 06:10:00,
2013-02-09 23:25:00,46.7,29.0,30.05,South,169,0.0,-999.0,51,-99.99,,,0.00,weatherlink.com 1.10,2013-02-10 06:25:00,
2013-02-09 23:40:00,46.5,29.0,30.05,South,169,2.0,-999.0,51,-99.99,,,0.00,weatherlink.com 1.10,2013-02-10 06:40:00,
2013-02-09 23:55:00,46.7,29.0,30.06,South,169,2.0,-999.0,51,-99.99,,,0.00,weatherlink.com 1.10,2013-02-10 06:55:00,